Weather History for Port Angeles, WA

Change the Weather History Date:

Friday, January 24, 2014

  Actual Average Record
Temperature  
Mean Temperature 40 °F -  
Max Temperature 50 °F 46 °F 60 °F (1951)
Min Temperature 30 °F 34 °F 9 °F (1950)
Degree Days  
Heating Degree Days 25    
Moisture  
Dew Point 33 °F    
Average Humidity 85    
Maximum Humidity 96    
Minimum Humidity 61    
Precipitation  
Precipitation 0.00 in - - ()
Sea Level Pressure  
Sea Level Pressure 30.38 in    
Wind  
Wind Speed 4 mph (SE)    
Max Wind Speed 7 mph    
Max Gust Speed -    
Visibility 10 miles    
Events      
Averages and records for this station are not official NWS values.
T = Trace of Precipitation, MM = Missing Value Source: NWS Daily Summary

Daily Weather History Graph

Daily Weather History Graph

Search for Another Location

Airport:

Trip Planner

Search our weather history database for the weather conditions in past years. The results will help you decide how hot, cold, wet, or windy it might be!

Date:

Astronomy

Jan. 24, 2014 Rise Set
Actual Time 7:51 AM PST 5:01 PM PST
Civil Twilight 7:17 AM PST 5:35 PM PST
Nautical Twilight 6:39 AM PST 6:13 PM PST
Astronomical Twilight 6:02 AM PST 6:50 PM PST
Moon 1:18 AM PST (1/24) 11:28 AM PST (1/24)
Length of Visible Light 10h 18m
Length of Day
9h 10m
Last Quarter, 43% of the Moon is Illuminated
Jan 24
Last Quarter
Jan 30
New
Feb 6
First Quarter
Feb 14
Full
Feb 22
Last Quarter

Hourly Weather History & Observations

Time (PST) Temp. Windchill Dew Point Humidity Pressure Visibility Wind Dir Wind Speed Gust Speed Precip Events Conditions
12:53 AM 30.9 °F - 30.0 °F 96% 30.44 in 10.0 mi Calm Calm - N/A   Clear
1:53 AM 32.0 °F 26.4 °F 28.9 °F 88% 30.45 in 10.0 mi SSE 5.8 mph - N/A   Clear
2:53 AM 34.0 °F 29.8 °F 30.9 °F 89% 30.44 in 10.0 mi SSE 4.6 mph - N/A   Clear
3:53 AM 33.1 °F 28.7 °F 30.9 °F 92% 30.43 in 10.0 mi WSW 4.6 mph - N/A   Clear
4:53 AM 30.9 °F - 30.0 °F 96% 30.42 in 10.0 mi Calm Calm - N/A   Clear
5:53 AM 30.0 °F 24.1 °F 28.0 °F 92% 30.42 in 10.0 mi SE 5.8 mph - N/A   Clear
6:53 AM 33.1 °F 30.0 °F 32.0 °F 96% 30.41 in 10.0 mi SE 3.5 mph - N/A   Clear
7:53 AM 33.1 °F 28.7 °F 30.9 °F 92% 30.41 in 10.0 mi ESE 4.6 mph - N/A   Clear
8:53 AM 33.1 °F - 32.0 °F 96% 30.41 in 10.0 mi Calm Calm - N/A   Clear
9:53 AM 45.0 °F 41.8 °F 37.0 °F 74% 30.42 in 10.0 mi East 5.8 mph - N/A   Clear
10:53 AM 46.0 °F 43.1 °F 37.9 °F 73% 30.42 in 10.0 mi ESE 5.8 mph - N/A   Clear
11:53 AM 46.9 °F - 37.9 °F 71% 30.41 in 10.0 mi East 6.9 mph - N/A   Clear
12:53 PM 48.9 °F - 37.9 °F 66% 30.40 in 10.0 mi East 6.9 mph - N/A   Clear
1:53 PM 48.9 °F - 36.0 °F 61% 30.36 in 10.0 mi East 5.8 mph - N/A   Clear
2:53 PM 50.0 °F - 37.0 °F 61% 30.34 in 10.0 mi ESE 4.6 mph - N/A   Clear
3:53 PM 46.9 °F - 39.0 °F 74% 30.33 in 10.0 mi East 5.8 mph - N/A   Clear
4:53 PM 42.1 °F 39.2 °F 37.0 °F 82% 30.33 in 10.0 mi SE 4.6 mph - N/A   Clear
5:53 PM 37.9 °F - 33.1 °F 83% 30.32 in 10.0 mi Calm Calm - N/A   Clear
6:53 PM 36.0 °F 33.3 °F 34.0 °F 93% 30.33 in 10.0 mi South 3.5 mph - N/A   Clear
7:53 PM 34.0 °F 29.8 °F 32.0 °F 92% 30.32 in 10.0 mi South 4.6 mph - N/A   Clear
8:53 PM 34.0 °F 29.8 °F 33.1 °F 96% 30.32 in 10.0 mi SW 4.6 mph - N/A   Clear
9:53 PM 36.0 °F 32.1 °F 33.1 °F 89% 30.32 in 10.0 mi SW 4.6 mph - N/A   Clear
10:53 PM 35.1 °F 29.3 °F 33.1 °F 92% 30.32 in 10.0 mi SW 6.9 mph - N/A   Clear
11:53 PM 33.1 °F - 32.0 °F 96% 30.32 in 10.0 mi Calm Calm - N/A   Clear